Meteo Giornale » Osservazioni meteo Italia » Ronchi Dei Legionari

ore: 20:50 - Osservazioni Meteo Ronchi Dei Legionari
Lat. 45° 49' N Lon. 13° 29' E Alt. 12 metri s.l.m.

coperto_pioggia Europe/Rome

6 °C

Pioggia Debole

Temp. 24 Ore

3 °C

9 °C

Est

31.5 Km/h

Dew point -0 °C

Umidità 65 %

Visibilità  10 Km

Il sole sorge alle ore 07:10

Il sole tramonta alle ore 16:32

Data e Ora Cielo e Fenomeni T °C DP °C Um. % Pres. hPa Vis. km Vento km/h
Oggi h: 20:50 coperto_pioggia Pioggia Debole 6 -0 65 1010 10 E 31.5
Oggi h: 20:20 molto_nuvoloso Molto Nuvoloso 7 -2 52 1010 10 E 33.3
Oggi h: 19:50 molto_nuvoloso Molto Nuvoloso 7 -1 56 1010 10 E 25.9
Oggi h: 19:20 molto_nuvoloso Molto Nuvoloso 6 -2 56 1010 10 E 24
Oggi h: 18:50 molto_nuvoloso Molto Nuvoloso 7 -2 52 1010 10 E 27.8
Oggi h: 18:20 molto_nuvoloso Molto Nuvoloso 7 -2 52 1010 10 N/NE 11.1
Oggi h: 17:50 molto_nuvoloso Molto Nuvoloso 7 -2 52 1010 10 E 14.8
Oggi h: 17:20 molto_nuvoloso Molto Nuvoloso 7 -2 52 1011 10 E/NE 14.8
Oggi h: 16:50 molto_nuvoloso Molto Nuvoloso 7 -2 52 1011 10 E 22.2
Oggi h: 16:20 molto_nuvoloso Molto Nuvoloso 7 -2 52 1011 10 E 20.3
Oggi h: 15:50 molto_nuvoloso Molto Nuvoloso 7 -2 52 1010 10 E 16.7
Oggi h: 15:20 molto_nuvoloso Molto Nuvoloso 7 -2 52 1011 10 E 25.9
Oggi h: 14:50 molto_nuvoloso Molto Nuvoloso 7 -2 52 1011 10 E 24
Oggi h: 14:20 molto_nuvoloso Molto Nuvoloso 7 -2 52 1011 10 E 24
Oggi h: 13:50 molto_nuvoloso Molto Nuvoloso 7 -1 56 1011 10 E 25.9
Oggi h: 13:20 molto_nuvoloso Molto Nuvoloso 7 -2 52 1011 10 E 31.5
Oggi h: 12:50 molto_nuvoloso Molto Nuvoloso 8 -1 52 1011 10 E 25.9
Oggi h: 12:20 poco_nuvoloso Poco Nuvoloso 8 -1 52 1011 10 E 27.8
Oggi h: 11:50 sereno Sereno 9 -2 45 1011 10 E 27.8
Oggi h: 11:20 sereno Sereno 8 -2 49 1011 10 E 29.6
Oggi h: 10:50 sereno Sereno 8 -2 49 1012 10 E/NE 27.8
Oggi h: 10:20 sereno Sereno 8 -2 49 1012 10 E 18.5
Oggi h: 09:50 poco_nuvoloso Poco Nuvoloso 7 -2 52 1011 10 E/NE 22.2
Oggi h: 09:20 poco_nuvoloso Poco Nuvoloso 7 -2 52 1012 10 E 24
Oggi h: 08:50 nuvoloso Nuvoloso 7 -1 56 1012 10 E 20.3
Oggi h: 08:20 nuvoloso Nuvoloso 6 -1 60 1012 10 E 14.8
Oggi h: 07:50 nuvoloso Nuvoloso 6 -1 60 1012 10 E 18.5
Oggi h: 07:20 molto_nuvoloso Molto Nuvoloso 4 -1 69 1012 10 N/NE 9.3
Oggi h: 06:50 molto_nuvoloso Molto Nuvoloso 4 -1 69 1012 10 NE 7.4
Oggi h: 06:20 molto_nuvoloso Molto Nuvoloso 4 -1 69 1012 10 N/NE 7.4
Oggi h: 05:50 coperto Coperto 5 -2 60 1012 10 E 7.4
Oggi h: 05:20 coperto Coperto 4 -2 64 1012 10 N 5.5
Oggi h: 04:50 coperto Coperto 4 -2 64 1012 10 N 5.5
Oggi h: 04:20 coperto Coperto 5 -2 60 1011 10 N/NE 7.4
Oggi h: 03:50 coperto Coperto 5 -2 60 1012 10 N 3.7
Oggi h: 03:20 nuvoloso Nuvoloso 4 -2 64 1012 10 E 9.3
Oggi h: 02:50 sereno Sereno 3 -2 69 1012 10 NE 9.3
Oggi h: 02:20 poco_nuvoloso Poco Nuvoloso 4 -2 64 1013 10 NE 9.3
Oggi h: 01:50 sereno Sereno 4 -2 64 1013 10 E/NE 9.3
Oggi h: 01:20 sereno Sereno 3 -2 69 1013 10 N 5.5
Oggi h: 00:50 sereno Sereno 3 -2 69 1013 10 N/NE 9.3
Oggi h: 00:20 sereno Sereno 4 -2 64 1014 10 NE 7.4
Ieri h: 23:50 sereno Sereno 3 -2 69 1014 10 N 3.7
Ieri h: 23:20 sereno Sereno 3 -2 69 1014 10 N 5.5
Ieri h: 22:50 sereno Sereno 3 -1 74 1015 10 N 3.7
Ieri h: 22:20 poco_nuvoloso Poco Nuvoloso 3 -2 69 1015 10 N 5.5
Ieri h: 21:50 poco_nuvoloso Poco Nuvoloso 4 -2 64 1015 10 E/NE 9.3
Ieri h: 21:20 sereno Sereno 5 -2 60 1015 10 N 5.5
Ieri h: 20:50 sereno Sereno 4 -2 64 1015 10 E/SE 13